Weather History for KFGN - February, 2013

Change the Weather History Date:

Thursday, February 14, 2013

  Actual Average Record
Temperature  
Mean Temperature 8 °F -  
Max Temperature 17 °F 16 °F 37 °F (1999)
Min Temperature 0 °F 0 °F -20 °F (2008)
Degree Days  
Heating Degree Days 56    
Moisture  
Dew Point 1 °F    
Average Humidity 74    
Maximum Humidity 92    
Minimum Humidity 41    
Precipitation  
Precipitation 0.00 in - - ()
Sea Level Pressure  
Sea Level Pressure 30.00 in    
Wind  
Wind Speed 10 mph (NW)    
Max Wind Speed 21 mph    
Max Gust Speed 23 mph    
Visibility 10 miles    
Events      
Averages and records for this station are not official NWS values.
T = Trace of Precipitation, MM = Missing Value Source: NWS Daily Summary

Daily Weather History Graph

Daily Weather History Graph

Search for Another Location

Airport or City:

Trip Planner

Search our weather history database for the weather conditions in past years. The results will help you decide how hot, cold, wet, or windy it might be!

Date:

Astronomy

Feb. 14, 2013 Rise Set
Actual Time 7:29 AM CST 5:38 PM CST
Civil Twilight 6:56 AM CST 6:11 PM CST
Nautical Twilight 6:19 AM CST 6:48 PM CST
Astronomical Twilight 5:42 AM CST 7:25 PM CST
Moon 9:02 AM CST (2/14) 11:15 PM CST (2/14)
Length of Visible Light 11h 14m
Length of Day
10h 08m
Waxing Crescent, 22% of the Moon is Illuminated
Feb 14
Waxing Crescent
Feb 17
First Quarter
Feb 25
Full
Mar 4
Last Quarter
Mar 11
New

Hourly Weather History & Observations

Time (CST) Temp. Windchill Dew Point Humidity Pressure Visibility Wind Dir Wind Speed Gust Speed Precip Events Conditions
12:13 AM 12.2 °F -1.0 °F 6.8 °F 79% 29.75 in 10.0 mi North 10.4 mph - N/A   Clear
12:33 AM 12.2 °F 0.7 °F 6.8 °F 79% 29.77 in 10.0 mi North 8.1 mph - N/A   Clear
12:54 AM 10.4 °F -0.4 °F 5.0 °F 79% 29.77 in 10.0 mi North 6.9 mph - N/A   Clear
1:13 AM 8.6 °F -3.7 °F 3.2 °F 79% 29.78 in 10.0 mi NNW 8.1 mph - N/A   Clear
1:33 AM 10.4 °F -1.5 °F 5.0 °F 79% 29.79 in 10.0 mi NNW 8.1 mph - N/A   Clear
1:54 AM 6.8 °F -4.8 °F 3.2 °F 85% 29.80 in 10.0 mi North 6.9 mph - N/A   Clear
2:13 AM 6.8 °F -7.8 °F 3.2 °F 85% 29.80 in 10.0 mi North 10.4 mph - N/A   Clear
2:33 AM 6.8 °F -3.5 °F 3.2 °F 85% 29.81 in 10.0 mi North 5.8 mph - N/A   Clear
2:54 AM 6.8 °F -7.8 °F 3.2 °F 85% 29.82 in 10.0 mi North 10.4 mph - N/A   Clear
3:13 AM 6.8 °F -6.9 °F 3.2 °F 85% 29.82 in 10.0 mi North 9.2 mph - N/A   Clear
3:33 AM 6.8 °F -6.9 °F 3.2 °F 85% 29.83 in 10.0 mi NNW 9.2 mph - N/A   Clear
3:54 AM 5.0 °F -8.1 °F 1.4 °F 85% 29.84 in 10.0 mi North 8.1 mph - N/A   Clear
4:13 AM 5.0 °F -8.1 °F 1.4 °F 85% 29.85 in 10.0 mi North 8.1 mph - N/A   Clear
4:34 AM 6.8 °F -8.6 °F 3.2 °F 85% 29.86 in 10.0 mi North 11.5 mph - N/A   Clear
4:53 AM 6.8 °F -7.8 °F 3.2 °F 85% 29.87 in 10.0 mi NNW 10.4 mph - N/A   Clear
5:13 AM 5.0 °F -9.1 °F 1.4 °F 85% 29.88 in 10.0 mi NNW 9.2 mph - N/A   Clear
5:34 AM 3.2 °F -9.1 °F 1.4 °F 92% 29.90 in 10.0 mi NNW 6.9 mph - N/A   Clear
5:53 AM 3.2 °F -12.2 °F 1.4 °F 92% 29.90 in 10.0 mi NNW 10.4 mph - N/A   Clear
6:14 AM 3.2 °F -12.2 °F -0.4 °F 85% 29.91 in 10.0 mi NNW 10.4 mph - N/A   Clear
6:33 AM 3.2 °F -11.3 °F -0.4 °F 85% 29.92 in 10.0 mi NNW 9.2 mph - N/A   Clear
6:54 AM 1.4 °F -13.5 °F -0.4 °F 92% 29.94 in 10.0 mi NNW 9.2 mph - N/A   Clear
7:13 AM 1.4 °F -11.3 °F -2.2 °F 85% 29.95 in 10.0 mi NW 6.9 mph - N/A   Clear
7:33 AM -0.4 °F -16.7 °F -2.2 °F 92% 29.96 in 10.0 mi NW 10.4 mph - N/A   Clear
7:53 AM -0.4 °F -15.7 °F -4.0 °F 85% 29.97 in 10.0 mi NW 9.2 mph - N/A   Clear
8:13 AM -0.4 °F -15.7 °F -2.2 °F 92% 29.98 in 10.0 mi NW 9.2 mph - N/A   Clear
8:34 AM 1.4 °F -15.3 °F -2.2 °F 85% 29.99 in 10.0 mi NW 11.5 mph - N/A   Clear
8:53 AM 1.4 °F -12.5 °F -2.2 °F 85% 29.99 in 10.0 mi NW 8.1 mph - N/A   Clear
9:14 AM 3.2 °F -9.1 °F -0.4 °F 85% 30.00 in 10.0 mi NW 6.9 mph - N/A   Clear
9:33 AM 3.2 °F -9.1 °F -0.4 °F 85% 30.01 in 10.0 mi NW 6.9 mph - N/A   Scattered Clouds
9:53 AM 5.0 °F -9.1 °F 1.4 °F 85% 30.02 in 10.0 mi NW 9.2 mph - N/A   Clear
10:13 AM 6.8 °F -6.9 °F 1.4 °F 79% 30.02 in 10.0 mi NW 9.2 mph - N/A   Clear
10:34 AM 8.6 °F -4.7 °F 3.2 °F 79% 30.02 in 10.0 mi NNW 9.2 mph - N/A   Clear
10:53 AM 8.6 °F -6.3 °F 3.2 °F 79% 30.03 in 10.0 mi NW 11.5 mph - N/A   Clear
11:13 AM 10.4 °F -3.3 °F 3.2 °F 73% 30.03 in 10.0 mi NW 10.4 mph - N/A   Clear
11:33 AM 10.4 °F -3.3 °F 3.2 °F 73% 30.04 in 10.0 mi NW 10.4 mph - N/A   Clear
11:53 AM 12.2 °F -0.2 °F 3.2 °F 67% 30.04 in 10.0 mi NNW 9.2 mph - N/A   Clear
12:13 PM 12.2 °F -1.0 °F 1.4 °F 62% 30.04 in 10.0 mi NW 10.4 mph - N/A   Clear
12:33 PM 12.2 °F -1.0 °F 1.4 °F 62% 30.04 in 10.0 mi NNW 10.4 mph - N/A   Clear
12:54 PM 14.0 °F 2.9 °F 1.4 °F 57% 30.03 in 10.0 mi NW 8.1 mph - N/A   Clear
1:13 PM 15.8 °F 5.1 °F -0.4 °F 49% 30.03 in 10.0 mi NNW 8.1 mph - N/A   Clear
1:33 PM 15.8 °F 4.2 °F -0.4 °F 49% 30.04 in 10.0 mi NNW 9.2 mph - N/A   Clear
1:54 PM 15.8 °F 3.4 °F -4.0 °F 41% 30.04 in 10.0 mi NNW 10.4 mph - N/A   Clear
2:13 PM 17.6 °F 6.4 °F 1.4 °F 49% 30.04 in 10.0 mi NNW 9.2 mph - N/A   Scattered Clouds
2:33 PM 17.6 °F 5.7 °F 1.4 °F 49% 30.05 in 10.0 mi NW 10.4 mph - N/A   Clear
2:54 PM 17.6 °F 5.0 °F -0.4 °F 45% 30.05 in 10.0 mi NW 11.5 mph - N/A   Clear
3:13 PM 15.8 °F 2.1 °F -0.4 °F 49% 30.05 in 10.0 mi NNW 12.7 mph - N/A   Scattered Clouds
3:33 PM 17.6 °F 3.2 °F 1.4 °F 49% 30.06 in 10.0 mi NW 15.0 mph - N/A   Mostly Cloudy
3:54 PM 17.6 °F 6.4 °F 1.4 °F 49% 30.06 in 10.0 mi NW 9.2 mph - N/A   Mostly Cloudy
4:13 PM 17.6 °F 2.2 °F -2.2 °F 42% 30.07 in 10.0 mi WNW 17.3 mph - N/A   Mostly Cloudy
4:33 PM 15.8 °F 1.4 °F -0.4 °F 49% 30.07 in 10.0 mi WNW 13.8 mph - N/A   Scattered Clouds
4:54 PM 15.8 °F -0.2 °F -0.4 °F 49% 30.08 in 10.0 mi WNW 17.3 mph - N/A   Overcast
5:13 PM 15.8 °F -0.6 °F 1.4 °F 53% 30.08 in 10.0 mi WNW 18.4 mph - N/A   Overcast
5:33 PM 14.0 °F -1.4 °F 1.4 °F 57% 30.09 in 10.0 mi WNW 15.0 mph - N/A   Overcast
5:54 PM 12.2 °F -5.8 °F 1.4 °F 62% 30.09 in 10.0 mi WNW 19.6 mph - N/A   Overcast
6:13 PM 12.2 °F -4.8 °F 1.4 °F 62% 30.10 in 10.0 mi NW 17.3 mph 23.0 mph N/A   Overcast
6:33 PM 12.2 °F -4.8 °F 3.2 °F 67% 30.11 in 10.0 mi NW 17.3 mph - N/A   Overcast
6:54 PM 10.4 °F -7.2 °F 1.4 °F 67% 30.12 in 10.0 mi NW 17.3 mph 23.0 mph N/A   Overcast
7:13 PM 8.6 °F -11.0 °F 1.4 °F 73% 30.12 in 10.0 mi NW 20.7 mph - N/A   Mostly Cloudy
7:33 PM 8.6 °F -10.0 °F 1.4 °F 73% 30.13 in 10.0 mi NW 18.4 mph - N/A   Scattered Clouds
7:54 PM 6.8 °F -11.3 °F 1.4 °F 79% 30.13 in 10.0 mi NW 16.1 mph - N/A   Clear
8:13 PM 6.8 °F -11.8 °F 1.4 °F 79% 30.13 in 10.0 mi NW 17.3 mph - N/A   Clear
8:33 PM 6.8 °F -10.7 °F -0.4 °F 72% 30.14 in 10.0 mi NW 15.0 mph - N/A   Clear
8:54 PM 5.0 °F -13.6 °F -0.4 °F 78% 30.14 in 10.0 mi NW 16.1 mph - N/A   Clear
9:13 PM 3.2 °F -15.3 °F -0.4 °F 85% 30.14 in 10.0 mi NW 15.0 mph - N/A   Clear
9:33 PM 3.2 °F -13.9 °F -0.4 °F 85% 30.14 in 10.0 mi NW 12.7 mph - N/A   Clear
9:54 PM 3.2 °F -13.1 °F -0.4 °F 85% 30.15 in 10.0 mi NW 11.5 mph - N/A   Clear
10:13 PM 3.2 °F -14.6 °F -0.4 °F 85% 30.15 in 10.0 mi NW 13.8 mph - N/A   Clear
10:33 PM 1.4 °F -15.3 °F -2.2 °F 85% 30.15 in 10.0 mi NW 11.5 mph - N/A   Clear
10:54 PM 3.2 °F -13.1 °F -2.2 °F 78% 30.15 in 10.0 mi NW 11.5 mph - N/A   Clear
11:13 PM 3.2 °F -14.6 °F -2.2 °F 78% 30.15 in 10.0 mi NW 13.8 mph - N/A   Clear
11:33 PM 1.4 °F -17.6 °F -2.2 °F 85% 30.15 in 10.0 mi NW 15.0 mph - N/A   Clear
11:54 PM 1.4 °F -16.9 °F -4.0 °F 78% 30.16 in 10.0 mi NW 13.8 mph - N/A   Clear